Change the Weather History Date:

Friday, January 24, 2014

  Actual Average Record
Temperature  
Mean Temperature 14 °F -  
Max Temperature 23 °F 39 °F 62 °F (2002)
Min Temperature 6 °F 24 °F 2 °F (1987)
Degree Days  
Heating Degree Days 50    
Moisture  
Dew Point -4 °F    
Average Humidity 41    
Maximum Humidity 53    
Minimum Humidity 31    
Precipitation  
Precipitation 0.00 in - - ()
Sea Level Pressure  
Sea Level Pressure 30.33 in    
Wind  
Wind Speed 9 mph (SW)    
Max Wind Speed 16 mph    
Max Gust Speed 22 mph    
Visibility 10 miles    
Events      
Averages and records for this station are not official NWS values.
T = Trace of Precipitation, MM = Missing Value Source: NWS Daily Summary

Daily Weather History Graph

Daily Weather History Graph

Search for Another Location

Airport or City:

Trip Planner

Search our weather history database for the weather conditions in past years. The results will help you decide how hot, cold, wet, or windy it might be!

Date:

Astronomy

Jan. 24, 2014 Rise Set
Actual Time 7:25 AM EST 5:24 PM EST
Civil Twilight 6:56 AM EST 5:52 PM EST
Nautical Twilight 6:24 AM EST 6:25 PM EST
Astronomical Twilight 5:52 AM EST 6:57 PM EST
Moon 12:51 AM EST (1/24) 11:41 AM EST (1/24)
Length of Visible Light 10h 56m
Length of Day
9h 58m
Last Quarter, 45% of the Moon is Illuminated
Jan 24
Last Quarter
Jan 30
New
Feb 6
First Quarter
Feb 14
Full
Feb 22
Last Quarter

Hourly Weather History & Observations

Time (EST) Temp. Windchill Dew Point Humidity Pressure Visibility Wind Dir Wind Speed Gust Speed Precip Events Conditions
12:15 AM 10.4 °F -4.8 °F -4.0 °F 52% 30.42 in 10.0 mi WNW 12.7 mph - N/A   Clear
12:35 AM 10.4 °F -6.0 °F -4.0 °F 52% 30.42 in 10.0 mi WNW 15.0 mph - N/A   Clear
12:55 AM 10.4 °F -4.8 °F -5.8 °F 48% 30.42 in 10.0 mi WNW 12.7 mph - N/A   Clear
1:15 AM 10.4 °F -4.1 °F -5.8 °F 48% 30.42 in 10.0 mi WNW 11.5 mph - N/A   Clear
1:35 AM 10.4 °F -2.4 °F -5.8 °F 48% 30.42 in 10.0 mi West 9.2 mph - N/A   Clear
1:55 AM 10.4 °F -4.8 °F -5.8 °F 48% 30.42 in 10.0 mi West 12.7 mph 21.9 mph N/A   Clear
2:15 AM 8.6 °F -5.5 °F -5.8 °F 52% 30.43 in 10.0 mi WNW 10.4 mph - N/A   Clear
2:35 AM 8.6 °F -2.6 °F -5.8 °F 52% 30.44 in 10.0 mi NW 6.9 mph - N/A   Clear
2:55 AM 8.6 °F -1.3 °F -5.8 °F 52% 30.45 in 10.0 mi WNW 5.8 mph - N/A   Clear
3:15 AM 6.8 °F -4.8 °F -7.6 °F 52% 30.45 in 10.0 mi WNW 6.9 mph - N/A   Clear
3:35 AM 8.6 °F -5.5 °F -7.6 °F 48% 30.46 in 10.0 mi West 10.4 mph - N/A   Clear
3:55 AM 8.6 °F -5.5 °F -7.6 °F 48% 30.45 in 10.0 mi West 10.4 mph - N/A   Clear
4:15 AM 8.6 °F -7.0 °F -7.6 °F 48% 30.45 in 10.0 mi West 12.7 mph - N/A   Clear
4:35 AM 8.6 °F -7.0 °F -7.6 °F 48% 30.45 in 10.0 mi West 12.7 mph - N/A   Clear
4:55 AM - - - N/A% 30.46 in 10.0 mi WNW 13.8 mph - N/A   Clear
5:15 AM - - - N/A% 30.44 in 10.0 mi West 16.1 mph - N/A   Clear
5:35 AM - - - N/A% 30.45 in 10.0 mi West 10.4 mph - N/A   Clear
5:55 AM - - - N/A% 30.47 in 10.0 mi West 6.9 mph - N/A   Clear
6:15 AM - - - N/A% 30.48 in 10.0 mi South 4.6 mph - N/A   Clear
6:35 AM - - - N/A% 30.48 in 10.0 mi SSE 6.9 mph - N/A   Clear
6:55 AM - - - N/A% 30.49 in 10.0 mi South 6.9 mph - N/A   Clear
7:15 AM - - - N/A% 30.49 in 10.0 mi South 5.8 mph - N/A   Clear
7:35 AM - - - N/A% 30.49 in 10.0 mi South 5.8 mph - N/A   Clear
7:55 AM - - - N/A% 30.49 in 10.0 mi SW 4.6 mph - N/A   Clear
8:15 AM - - - N/A% 30.49 in 10.0 mi WSW 4.6 mph - N/A   Clear
8:35 AM - - - N/A% 30.48 in 10.0 mi WSW 4.6 mph - N/A   Clear
8:55 AM - - - N/A% 30.48 in 10.0 mi WSW 8.1 mph - N/A   Clear
9:15 AM - - - N/A% 30.48 in 10.0 mi WSW 5.8 mph - N/A   Clear
9:35 AM 12.2 °F 1.7 °F -5.8 °F 45% 30.48 in 10.0 mi West 6.9 mph - N/A   Clear
9:55 AM 12.2 °F -1.0 °F -5.8 °F 45% 30.49 in 10.0 mi West 10.4 mph - N/A   Clear
10:15 AM 14.0 °F 2.9 °F -4.0 °F 45% 30.47 in 10.0 mi West 8.1 mph - N/A   Clear
10:35 AM 14.0 °F 2.0 °F -4.0 °F 45% 30.46 in 10.0 mi WSW 9.2 mph - N/A   Clear
10:55 AM 15.8 °F 3.4 °F -4.0 °F 41% 30.46 in 10.0 mi SW 10.4 mph - N/A   Clear
11:15 AM 17.6 °F 6.4 °F -4.0 °F 38% 30.45 in 10.0 mi WSW 9.2 mph - N/A   Clear
11:35 AM 17.6 °F 8.2 °F -4.0 °F 38% 30.43 in 10.0 mi WSW 6.9 mph - N/A   Clear
11:55 AM 17.6 °F 6.4 °F -4.0 °F 38% 30.43 in 10.0 mi SW 9.2 mph - N/A   Clear
12:15 PM 17.6 °F 7.3 °F -4.0 °F 38% 30.41 in 10.0 mi South 8.1 mph - N/A   Clear
12:35 PM 19.4 °F 11.5 °F -4.0 °F 36% 30.39 in 10.0 mi SW 5.8 mph - N/A   Clear
12:55 PM 19.4 °F 7.9 °F -2.2 °F 39% 30.37 in 10.0 mi SSW 10.4 mph - N/A   Clear
1:15 PM 19.4 °F 7.9 °F -4.0 °F 36% 30.35 in 10.0 mi SSW 10.4 mph - N/A   Clear
1:35 PM 21.2 °F 10.1 °F -4.0 °F 33% 30.34 in 10.0 mi SW 10.4 mph - N/A   Clear
1:55 PM 21.2 °F 10.9 °F -4.0 °F 33% 30.33 in 10.0 mi SW 9.2 mph - N/A   Clear
2:15 PM 21.2 °F 10.1 °F -4.0 °F 33% 30.33 in 10.0 mi SW 10.4 mph 16.1 mph N/A   Clear
2:35 PM 21.2 °F 10.1 °F -4.0 °F 33% 30.31 in 10.0 mi SW 10.4 mph 18.4 mph N/A   Clear
2:55 PM 21.2 °F 12.6 °F -4.0 °F 33% 30.30 in 10.0 mi SW 6.9 mph - N/A   Clear
3:15 PM 23.0 °F 12.4 °F -4.0 °F 31% 30.29 in 10.0 mi SSW 10.4 mph - N/A   Clear
3:35 PM 21.2 °F 10.1 °F -4.0 °F 33% 30.27 in 10.0 mi SW 10.4 mph - N/A   Clear
3:55 PM 23.0 °F 14.7 °F -4.0 °F 31% 30.26 in 10.0 mi SW 6.9 mph - N/A   Clear
4:15 PM 21.2 °F 11.7 °F -4.0 °F 33% 30.26 in 10.0 mi SSW 8.1 mph - N/A   Clear
4:35 PM 21.2 °F 10.9 °F -4.0 °F 33% 30.25 in 10.0 mi South 9.2 mph - N/A   Clear
4:55 PM 21.2 °F 14.9 °F -2.2 °F 36% 30.23 in 10.0 mi SSW 4.6 mph - N/A   Clear
5:15 PM 21.2 °F 11.7 °F -4.0 °F 33% 30.22 in 10.0 mi SSW 8.1 mph - N/A   Clear
5:35 PM 19.4 °F 7.9 °F -4.0 °F 36% 30.21 in 10.0 mi SSW 10.4 mph - N/A   Clear
5:55 PM 19.4 °F 10.4 °F -4.0 °F 36% 30.21 in 10.0 mi SSW 6.9 mph - N/A   Clear
6:15 PM 19.4 °F 9.5 °F -4.0 °F 36% 30.21 in 10.0 mi SSW 8.1 mph - N/A   Clear
6:35 PM 19.4 °F 9.5 °F -4.0 °F 36% 30.19 in 10.0 mi South 8.1 mph - N/A   Clear
6:55 PM 17.6 °F 10.7 °F -2.2 °F 42% 30.18 in 10.0 mi SSW 4.6 mph - N/A   Clear
7:15 PM 17.6 °F 9.3 °F -4.0 °F 38% 30.17 in 10.0 mi SSW 5.8 mph - N/A   Clear
7:35 PM 17.6 °F 7.3 °F -2.2 °F 42% 30.16 in 10.0 mi SSW 8.1 mph - N/A   Scattered Clouds
7:55 PM 17.6 °F 6.4 °F -4.0 °F 38% 30.14 in 10.0 mi South 9.2 mph - N/A   Scattered Clouds
8:15 PM 17.6 °F 9.3 °F -4.0 °F 38% 30.13 in 10.0 mi South 5.8 mph - N/A   Clear
8:35 PM 17.6 °F 10.7 °F -4.0 °F 38% 30.11 in 10.0 mi SSW 4.6 mph - N/A   Clear
8:55 PM 17.6 °F - -4.0 °F 38% 30.10 in 10.0 mi Calm Calm - N/A   Clear
9:15 PM 17.6 °F - -4.0 °F 38% 30.08 in 10.0 mi Calm Calm - N/A   Clear
9:35 PM 14.0 °F - -2.2 °F 49% 30.08 in 10.0 mi Calm Calm - N/A   Clear
9:55 PM 14.0 °F - -2.2 °F 49% 30.06 in 10.0 mi Calm Calm - N/A   Clear
10:15 PM 15.8 °F 8.6 °F -2.2 °F 45% 30.05 in 10.0 mi WSW 4.6 mph - N/A   Clear
10:35 PM 15.8 °F - -4.0 °F 41% 30.04 in 10.0 mi Calm Calm - N/A   Clear
10:55 PM 15.8 °F - -4.0 °F 41% 30.02 in 10.0 mi Calm Calm - N/A   Clear
11:15 PM 15.8 °F 10.2 °F -4.0 °F 41% 30.00 in 10.0 mi SW 3.5 mph - N/A   Clear
11:35 PM 15.8 °F - -2.2 °F 45% 29.99 in 10.0 mi Calm Calm - N/A   Clear
11:55 PM 14.0 °F 8.2 °F -0.4 °F 53% 29.98 in 10.0 mi SSE 3.5 mph - N/A   Clear